CAPE
0 0 0 0 0 0 0 0 0 0 0 0 0 0 0 0 0 0 0 0 0 0 0 0 0 0 0 0 0 0 0 0 0 0 0 0 5 31 26 1 0 0 0 0 1 4 19 3 323 235 190 55 163 9
0 0 0 0 0 0 0 0 0 0 0 0 0 0 0 0 0 0 0 0 0 0 0 0 0 0 0 0 0 0 0 0 0 0 0 0 0 10 19 13 0 0 0 8 68 112 20 26 0 44 28 0 3 101
1 1 2 2 1 0 0 0 0 0 0 0 0 0 0 0 0 0 0 0 0 0 0 0 0 0 0 0 0 0 0 0 0 0 0 0 0 0 13 44 8 0 0 0 0 0 1 1 4 25 0 0 2 41
2 1 1 3 2 1 0 0 0 0 0 0 0 0 0 0 0 0 0 0 0 0 0 0 0 0 0 0 0 0 0 0 0 0 0 0 0 0 0 9 42 0 0 0 0 12 29 3 0 74 3 0 1 120
1 1 1 1 2 2 1 0 0 0 0 0 0 0 0 0 0 0 0 0 0 0 0 0 0 0 0 0 0 0 0 0 0 0 0 0 0 0 0 1 45 7 2 11 96 130 50 18 9 17 19 9 72 87
1 0 1 1 1 2 2 1 0 2 2 0 0 0 0 0 0 0 0 0 0 0 0 0 0 0 0 0 0 0 0 0 0 0 0 0 0 0 0 0 18 8 24 23 22 36 164 151 141 100 39 37 80 6
0 0 1 1 0 1 1 0 0 1 1 0 1 0 0 0 0 0 0 0 0 0 0 0 0 0 0 0 0 0 0 2 0 0 0 0 0 0 0 0 0 18 14 6 0 0 27 99 135 243 300 223 208 231
0 1 1 0 1 2 0 0 0 1 1 0 1 0 0 0 0 0 0 0 0 0 1 1 0 0 0 0 0 2 0 0 0 0 0 0 0 0 0 0 0 10 42 19 15 3 62 195 288 612 652 770 844 659
1 1 0 0 1 1 0 0 0 1 1 1 0 0 0 0 0 0 0 0 0 0 1 5 0 0 2 1 9 4 0 0 0 0 0 0 0 0 0 5 0 0 0 8 23 89 173 542 557 641 735 962 1019 1028
2 0 0 0 0 1 0 0 0 0 1 0 0 0 0 1 0 0 0 1 1 0 2 2 0 0 0 0 3 4 2 0 0 0 0 0 0 0 0 0 0 0 16 178 249 206 445 414 459 515 749 1151 1247 1541
0 0 0 0 0 2 0 0 0 7 0 0 2 1 0 0 0 4 6 2 2 1 0 0 0 0 0 0 0 7 4 8 1 0 3 3 0 2 0 0 0 7 8 243 277 362 357 247 280 422 677 1024 1436 1774
0 0 0 1 0 1 3 0 1 4 0 0 2 9 8 8 0 4 5 5 7 0 0 0 0 0 0 0 0 1 1 0 0 5 11 0 23 64 10 34 137 299 319 234 225 113 59 47 64 207 590 879 1202 1280
1 1 2 1 1 2 0 0 1 1 2 11 9 12 21 15 8 5 1 3 0 0 0 0 0 0 8 4 2 0 6 0 0 0 9 4 298 170 257 243 297 285 173 94 56 3 0 0 0 19 120 663 1012 1375
0 0 0 1 2 1 1 0 0 1 1 6 5 0 0 3 0 0 0 0 1 16 3 14 22 3 4 8 16 8 11 4 1 0 9 72 398 362 224 153 158 97 54 9 0 0 0 0 0 0 0 0 51 1009
1 0 1 1 1 1 1 0 0 2 3 4 14 0 0 0 0 0 0 0 6 25 10 17 37 31 27 26 46 33 18 6 15 29 53 144 215 204 113 89 73 28 13 4 0 0 0 0 0 0 0 0 1 514
2 3 1 2 1 1 3 0 4 4 16 1 12 13 5 0 0 0 0 20 14 12 8 3 44 32 25 25 38 28 6 2 68 85 95 55 47 124 125 78 57 44 33 16 0 0 0 0 0 0 0 0 0 0
6 2 0 0 1 1 0 8 11 17 2 6 5 0 0 0 0 3 29 42 4 0 13 4 6 20 30 31 6 0 31 59 55 15 1 39 23 26 159 184 121 102 85 70 43 25 14 1 0 0 0 0 0 0
2 0 1 1 3 2 1 1 29 13 11 11 3 0 0 0 0 0 0 26 33 20 9 12 14 1 5 8 25 15 13 5 0 0 0 0 47 78 119 140 166 207 144 111 83 42 13 0 0 0 0 0 0 0
0 1 0 0 4 12 3 2 21 30 18 12 2 0 0 0 0 0 0 20 38 36 14 19 9 11 2 0 20 29 0 0 0 0 0 0 0 6 103 75 63 60 14 47 48 25 0 16 1 0 0 0 0 0
20 9 0 0 0 18 29 23 14 8 17 3 1 0 0 0 0 0 0 1 21 6 8 6 3 0 0 0 0 0 0 0 0 0 0 0 0 27 37 60 65 100 126 56 58 31 22 0 0 0 3 5 0 0
2 1 8 0 1 1 26 9 7 0 0 0 0 1 0 0 1 1 0 2 23 6 5 0 0 0 0 0 0 0 0 0 0 2 3 1 0 0 0 0 1 0 0 0 0 0 0 0 0 0 0 5 0 0
0 0 10 10 2 7 7 13 18 13 10 1 2 0 0 0 0 0 1 15 17 10 0 0 0 0 5 9 1 0 0 0 0 0 4 9 3 0 0 0 0 0 0 0 0 0 0 0 0 0 0 0 0 0
1 3 19 3 8 7 6 0 3 5 11 9 12 18 9 3 1 1 3 0 0 0 0 5 18 20 13 11 20 48 26 16 16 34 14 11 4 0 6 21 0 0 0 0 0 0 0 0 0 0 0 0 0 0
14 0 19 4 15 3 2 4 3 2 3 0 0 0 8 4 11 13 7 1 0 0 6 5 0 6 14 18 14 5 11 35 40 23 5 0 0 1 4 0 5 0 0 0 0 0 0 0 0 0 0 0 0 0
8 1 2 14 9 23 2 4 3 7 4 4 12 13 0 0 1 5 3 0 0 0 0 0 1 8 15 15 19 21 42 69 54 48 38 57 58 53 50 38 23 3 0 0 0 0 0 7 13 20 10 0 0 0
0 2 0 0 2 4 3 3 6 0 0 1 6 2 3 4 4 1 0 0 0 1 2 5 8 8 26 30 70 63 82 49 44 28 6 0 12 92 94 72 49 17 6 7 13 16 15 21 36 19 32 21 9 0
0 6 0 1 5 0 5 0 1 1 4 4 1 1 8 19 5 0 0 0 3 31 28 39 35 22 10 16 5 8 45 80 43 4 6 22 36 18 6 28 34 16 26 45 11 9 5 15 20 20 47 35 47 51
0 6 4 3 5 3 4 9 9 9 9 22 23 17 18 15 0 2 16 20 3 10 17 22 9 0 0 24 18 57 89 28 12 1 0 4 32 11 0 7 3 15 13 12 20 5 0 0 0 18 76 62 55 76
1 1 3 4 8 7 9 6 3 5 5 17 5 3 17 13 14 11 18 15 17 33 30 28 24 7 0 0 0 0 36 22 2 0 1 39 37 33 38 72 105 50 17 3 2 1 2 0 1 3 5 49 29 19
0 0 10 18 13 7 2 3 1 0 8 11 6 9 9 4 8 14 29 51 56 41 16 6 4 0 0 0 0 0 0 2 6 18 0 0 7 12 15 11 13 9 5 13 28 35 25 2 0 11 6 1 2 0
0 8 13 15 12 5 0 0 1 0 7 11 14 17 11 7 5 2 3 2 2 0 4 3 0 0 0 1 1 1 0 0 0 1 3 1 0 0 0 0 0 0 0 23 11 35 38 33 22 30 45 53 30 1
3 0 0 0 0 1 21 10 3 1 0 0 0 0 0 0 0 0 0 20 10 8 1 1 4 3 4 3 2 6 2 0 0 0 0 3 8 9 0 0 0 0 0 0 0 10 4 9 48 75 76 50 64 41
5 4 13 24 21 17 8 0 0 0 0 0 0 0 0 0 0 1 6 4 6 1 4 11 12 24 24 11 5 10 19 31 21 16 7 0 0 1 0 2 5 1 0 0 0 0 0 0 4 67 50 27 45 58
CIN
0 0 0 0 0 0 0 0 0 0 0 0 0 0 0 0 0 0 0 0 0 0 0 0 0 0 0 0 0 0 0 0 0 0 0 0 -5 -19 -17 -18 0 0 0 0 -40 -87 -45 -161 -118 -120 -276 -340 -277 -276
0 0 0 0 0 0 0 0 0 0 0 0 0 0 0 0 0 0 0 0 0 0 0 0 0 0 0 0 0 0 0 0 0 0 0 0 0 -10 -16 -9 0 0 0 -30 -47 -51 -223 -172 0 -332 -388 0 -33 -150
0 0 0 0 0 0 0 0 0 0 0 0 0 0 0 0 0 0 0 0 0 0 0 0 0 0 0 0 0 0 0 0 0 0 0 0 0 0 -11 -4 -31 0 0 0 0 0 -12 -17 -33 -345 0 0 -229 -139
0 0 0 0 0 0 0 0 0 0 0 0 0 0 0 0 0 0 0 0 0 0 0 0 0 0 0 0 0 0 0 0 0 0 0 0 0 0 0 -10 -20 -14 0 0 0 -78 -127 -171 -41 -250 -156 0 -13 -133
0 0 0 0 0 0 0 0 0 0 0 0 0 0 0 0 0 0 0 0 0 0 0 0 0 0 0 0 0 0 0 0 0 0 0 0 0 0 0 -4 -12 -102 -36 -20 -24 -33 -48 -84 -75 -197 -138 -61 -172 -127
0 0 0 0 0 0 0 0 0 0 0 0 0 0 0 0 0 0 0 0 0 0 0 0 0 0 0 0 0 0 0 0 0 0 0 0 0 0 0 0 -27 -42 -61 -97 -98 -138 -106 -91 -64 -65 -51 -22 -15 -7
0 0 0 0 0 0 0 0 0 0 0 0 0 0 0 0 0 0 0 0 0 0 -2 0 0 0 0 0 0 0 0 -4 -3 -1 0 -1 0 0 0 0 0 -25 -34 -85 0 0 -78 -90 -47 -34 -17 -22 -23 -29
0 0 0 0 0 0 0 0 0 -2 -3 -2 0 0 0 0 0 0 0 0 0 0 -1 0 0 0 0 0 -5 -5 0 0 0 0 0 0 0 -1 0 0 0 -15 -19 -40 -34 -42 -56 -14 -17 -17 -12 -11 -8 -12
0 0 0 0 0 0 0 0 0 -2 -2 -1 0 0 0 0 0 -1 0 0 0 0 -1 0 0 0 -2 -5 -8 -17 0 0 0 0 0 0 0 0 0 -9 0 0 -3 -42 -14 -11 -10 -13 -15 -13 -12 -11 -8 -15
0 0 0 0 0 0 0 0 0 0 0 0 0 0 0 0 0 0 0 0 0 0 -1 0 0 0 0 0 -5 -3 -6 0 0 0 0 0 0 0 0 0 -1 -1 -21 -12 -11 -18 -10 -7 -10 -15 -9 -2 -6 -6
0 0 0 0 0 -1 0 0 -1 -1 0 -2 0 0 0 0 0 -3 0 -1 -1 0 0 0 0 0 0 0 0 -10 -6 -4 -1 0 -4 -1 0 -3 0 0 0 -18 -12 -7 -15 -13 -8 -9 -14 -24 -30 -13 -11 -24
0 0 0 0 -1 0 -1 0 -2 -2 -2 0 0 -6 -9 -16 -11 -2 -6 -3 -1 0 0 0 0 0 0 0 0 -2 -1 0 0 -2 -4 0 -11 -29 -16 -18 -27 -14 -11 -14 -2 -11 -23 -30 -42 -38 -36 -23 -17 -38
-2 -2 -1 -1 -1 -1 -1 0 -4 -5 -25 -7 -2 0 -3 -1 -1 -7 -1 -1 -1 0 0 0 0 0 -9 -7 -8 0 -7 -1 0 0 -1 -4 -10 -17 -17 -24 -19 -19 -18 -23 -13 -3 0 0 -2 -97 -73 -39 -29 -26
-4 -4 -4 -3 -2 -2 -2 0 0 -2 -8 -5 -2 -1 -1 -3 0 0 0 -1 -2 -5 -18 -11 -7 -10 -4 -6 -2 -7 -9 -6 -1 0 -3 -20 -20 -25 -29 -33 -22 -24 -18 -10 0 0 0 0 0 0 0 0 -150 -44
-3 -1 -5 -4 -4 -3 -3 0 0 -11 -1 -8 -3 -1 0 0 0 0 0 0 -23 -11 -18 -17 -5 -5 -9 -9 -10 -4 -7 -6 -2 -12 -17 -15 -19 -19 -32 -28 -26 -30 -33 -19 0 0 0 0 0 0 0 0 -33 -60
-3 -2 0 -3 -5 -4 -2 -1 0 -17 -4 -3 -2 -3 -34 0 0 0 0 -13 -52 -43 -36 -10 -9 -4 -4 -10 -2 -5 -4 -1 -8 -23 -23 -28 -30 -17 -12 -26 -38 -53 -46 -28 0 0 0 0 0 0 0 0 0 0
0 -2 -1 -1 -3 -4 -1 -1 -8 -10 -2 -2 -2 0 0 0 0 -16 -4 -4 -31 -3 -10 -15 -3 -2 -6 -3 -5 0 -9 -21 -22 -47 -5 -34 -52 -38 -15 -15 -22 -27 -34 -30 -29 -28 -39 -10 0 0 0 0 0 0
-1 0 -5 -8 -3 -2 0 -7 -1 -4 0 -3 -2 0 0 0 0 0 -3 -39 -6 -4 -20 -13 -7 -2 -23 -5 -7 -41 -34 -82 0 0 0 0 -10 -9 -12 -5 -7 -10 -15 -18 -17 -22 -35 -1 0 0 0 0 0 0
0 -6 0 -1 -1 -3 -7 -15 -1 -1 -4 -6 -3 0 0 0 0 0 0 -1 -6 -8 -10 -14 -9 -5 -1 0 -7 -18 0 0 0 0 0 0 0 -24 -12 -18 -20 -14 -12 -19 -18 -27 0 -20 -5 0 0 0 0 0
-4 -3 0 0 -12 -4 -4 -5 -12 -8 -3 -1 -1 0 0 0 0 0 0 -2 -7 -8 -3 -4 -5 0 0 0 0 0 0 0 0 0 0 0 0 -3 -8 -13 -10 -13 -9 -11 -10 -26 -38 -2 0 0 -11 -10 0 0
0 0 0 -9 0 -1 0 -5 -5 0 0 0 0 0 0 0 -6 -6 0 -4 -3 -7 -1 0 0 0 0 0 0 0 0 0 0 -8 -7 -2 0 0 0 0 -65 0 0 0 0 0 -1 0 0 0 0 -7 0 0
0 -1 -1 -6 -14 -17 -6 -5 -5 -8 -5 -2 -1 -1 0 0 0 0 -4 -5 -4 -6 0 0 0 -2 -1 -11 -3 0 0 0 0 0 -1 -3 -1 0 0 0 0 0 0 0 0 0 0 0 0 0 0 0 0 0
-9 -8 -4 -8 -4 -4 -6 0 -3 -2 -3 -1 -5 -1 -1 -5 -10 -8 -7 0 0 0 0 -4 -2 -2 -4 -3 -4 -7 -4 -4 -6 -3 -4 -5 -5 0 -5 -16 0 0 0 0 0 0 0 0 0 0 0 0 0 0
-12 0 -1 -5 -3 0 -1 -9 -7 -1 -1 0 0 -1 -2 -7 -6 -2 -2 -1 0 0 -4 -6 0 -3 -6 -8 -14 -20 -13 -11 -8 -8 -13 0 0 -6 -35 0 -8 0 0 0 0 0 0 0 0 0 0 0 0 0
-1 -16 -2 -1 -2 0 0 0 0 0 0 0 -1 -1 0 0 -3 -1 -3 0 0 0 0 0 -13 -5 -2 -3 -2 -2 -4 -6 -5 -9 -13 -10 -9 -13 -15 -16 -13 -21 0 0 0 0 0 -16 -8 -10 -9 -2 0 0
-3 0 0 -1 0 0 0 0 -1 -1 0 -1 -4 -2 -1 -1 -4 -2 0 0 0 -2 -1 -4 -4 -8 -3 -3 -4 -10 -4 -16 -2 -6 -14 -3 -15 -6 -1 0 -2 -3 -11 -10 -12 -6 -5 -4 -5 -4 -3 -6 -11 -2
-4 -1 -1 -3 -2 -1 -1 0 -1 -4 -6 -3 -1 -4 -2 0 -1 0 0 0 -7 -2 -2 -14 -28 -22 -28 -17 -23 -22 -40 -11 -20 -22 -55 -25 -15 -21 -16 -13 -7 -10 -16 -7 -16 -14 -7 -6 -13 -8 -10 -15 -14 -15
0 0 -1 -3 -1 -1 -4 -3 -2 -4 -1 -1 0 -1 -6 -4 -2 -6 -6 -4 -12 -17 -7 -7 -29 0 -5 -21 -3 -7 -15 -18 -37 -104 0 -55 -14 -26 -2 -22 -4 -14 -29 -18 -18 -5 0 -4 -1 -11 -11 -7 -10 -20
-3 0 -34 -16 -6 -3 -2 -1 -3 -1 -6 -2 -10 -5 -3 -9 -9 -6 -2 -19 -22 -15 -1 -1 -2 -1 -1 0 0 -1 -6 -21 -25 -1 -15 -4 -6 -8 -11 -13 -17 -18 -25 -8 -18 -10 -24 0 -3 -2 -12 -14 -13 -16
0 -2 -4 -6 -3 -6 -1 -1 -1 -2 -3 -5 -2 -2 -4 -8 -10 -9 -8 0 0 0 -1 -8 -3 0 0 0 0 0 0 -3 -7 -1 0 -15 -3 -8 -10 -12 -3 -11 -18 -17 -13 -17 -25 -37 -2 -40 -20 -10 -11 0
0 -2 -2 -2 -1 -2 -1 0 -2 -3 -1 -1 -2 -1 -2 -5 -1 -2 -2 -2 -4 -5 -8 -5 0 0 0 -1 -1 -1 0 0 0 -5 -8 -6 0 0 0 0 0 0 0 -2 -11 -6 -10 -20 -14 -16 -19 -22 -24 -11
-1 0 0 0 -1 -6 0 0 -4 0 0 0 0 0 0 0 0 0 -1 -1 0 -1 -1 -3 -3 -4 -3 -1 -2 -3 -7 0 0 0 -1 -8 -3 -8 0 0 0 0 0 0 0 -7 -5 -15 -9 -12 -9 -7 -15 -12
-6 -3 0 0 0 -2 -17 0 0 0 0 0 0 0 0 0 0 -1 -36 -36 -26 -39 -31 -32 -29 -19 -10 -10 -14 -10 -10 -14 -34 -40 -62 0 0 -38 0 -42 -35 -28 0 0 0 0 0 0 -3 -3 -5 -17 -3 -3
Wind_Speed
28 27 26 26 26 27 27 27 28 28 28 28 29 29 30 30 30 28 22 26 26 22 13 12 22 22 27 24 24 28 25 24 24 21 15 15 20 19 17 18 15 14 14 24 25 20 26 26 25 23 27 33 31 26
31 29 27 26 26 26 26 26 26 27 27 28 28 29 29 30 30 29 23 29 29 18 14 22 13 6 6 4 18 20 19 23 18 22 22 19 21 20 19 17 15 14 13 20 25 20 20 26 25 18 20 27 22 20
32 31 29 27 27 27 27 26 26 26 26 26 26 28 29 30 30 29 25 28 30 24 28 19 16 9 8 7 7 10 15 14 21 23 20 17 16 18 16 16 15 15 15 20 23 18 21 22 24 19 24 30 29 23
34 32 29 28 27 27 27 27 26 25 25 24 25 27 28 29 30 29 26 26 26 24 20 21 29 27 22 8 7 6 8 18 14 18 19 14 14 15 18 16 11 13 15 17 20 20 21 16 14 13 16 19 20 27
34 32 29 28 27 27 27 27 26 25 25 24 24 25 27 29 31 30 21 20 21 24 26 29 30 21 14 8 13 16 10 9 11 9 8 8 10 15 15 13 10 8 15 16 19 14 18 23 5 7 6 8 20 18
33 31 29 27 28 27 26 25 25 26 25 25 24 24 25 27 29 25 20 18 20 25 26 27 27 23 15 14 12 14 13 11 9 7 10 12 11 14 14 10 10 9 14 16 16 22 28 25 8 4 10 13 26 24
32 29 28 27 27 27 26 24 24 23 24 24 24 23 24 25 24 20 21 21 25 25 22 27 24 16 12 14 13 12 18 17 11 8 8 7 7 4 8 3 1 8 8 8 11 15 19 23 15 3 4 26 27 28
31 29 29 28 27 27 26 24 23 23 23 23 22 22 24 26 24 23 20 9 18 21 20 21 21 21 8 14 15 11 17 21 16 15 13 14 15 11 9 4 5 7 12 6 5 7 8 16 23 22 23 25 27 27
30 28 28 27 26 26 24 23 22 21 20 19 20 22 23 19 20 19 17 15 13 19 20 19 21 22 18 20 19 18 19 21 18 12 9 12 8 8 8 5 8 8 6 19 9 17 19 21 23 24 25 28 28 29
29 29 27 26 25 23 23 21 20 18 16 14 18 21 22 19 15 16 19 18 18 17 18 22 22 22 28 24 19 20 18 18 19 14 12 9 2 2 4 6 4 7 10 15 16 19 22 22 22 25 26 27 26 30
27 27 27 26 25 24 22 20 17 12 11 18 19 21 18 15 19 19 21 19 16 20 16 17 14 17 15 15 22 18 21 19 18 14 10 14 14 6 7 9 7 4 7 9 15 17 19 20 21 24 26 26 26 27
28 26 25 25 23 22 20 18 13 13 15 16 18 17 15 18 20 21 20 19 19 22 14 17 11 11 16 17 18 18 18 18 16 17 15 14 16 21 10 8 8 9 8 9 11 15 18 20 21 23 25 26 25 26
26 24 23 22 21 19 18 17 13 15 18 15 17 18 17 17 20 20 20 20 20 17 17 13 11 12 14 15 16 17 17 17 18 16 15 14 15 18 19 13 10 10 11 13 15 17 18 20 22 24 25 25 26 26
24 23 21 21 21 20 18 16 14 15 16 19 18 23 20 19 21 22 22 19 18 20 22 10 10 14 14 16 16 18 17 17 18 19 18 15 14 15 14 14 12 12 12 14 15 17 20 21 24 25 25 27 27 26
22 21 21 21 19 18 16 14 14 15 17 20 19 23 23 21 22 20 18 26 27 22 16 16 17 16 16 19 17 18 19 19 19 18 19 15 16 16 15 16 15 13 14 17 16 19 21 23 25 27 26 27 28 27
20 21 23 20 19 18 16 14 15 17 19 22 23 23 21 18 23 27 27 25 20 21 15 14 19 20 18 17 18 17 20 22 21 22 19 16 16 17 16 17 16 17 17 19 20 21 23 25 27 30 29 28 28 28
16 21 19 18 16 15 15 16 17 20 23 24 25 24 27 26 23 25 22 21 16 19 19 18 19 20 21 20 20 21 24 21 22 22 22 22 18 16 18 18 17 18 20 20 22 24 25 28 30 31 30 31 30 30
20 18 15 14 14 14 18 19 20 22 28 26 26 24 27 29 30 29 26 23 25 22 21 23 19 20 20 22 21 18 19 23 24 26 27 27 25 22 22 22 22 21 20 19 21 22 26 28 30 28 31 32 32 31
18 19 15 15 14 15 18 21 22 26 27 26 25 28 28 28 31 32 29 26 21 20 21 22 25 25 25 27 28 24 20 23 28 31 31 31 32 30 23 24 24 23 23 23 20 22 26 28 31 32 31 28 29 30
13 13 13 14 17 19 20 22 22 28 28 26 23 24 26 29 31 32 31 28 21 22 25 25 26 26 27 29 31 34 36 34 35 33 32 27 29 31 28 27 31 25 23 22 23 22 25 28 29 30 30 24 30 32
15 15 13 17 21 21 21 19 21 23 23 28 26 24 23 24 25 25 27 27 26 25 27 27 30 32 30 33 34 35 37 38 38 37 36 35 35 38 39 39 37 37 36 34 33 32 32 26 27 29 32 29 26 31
16 15 15 19 21 21 23 21 21 22 23 25 23 21 25 27 29 29 29 31 30 30 31 31 31 33 33 30 28 31 34 35 37 39 38 35 38 39 39 37 36 36 37 36 36 35 35 33 31 31 29 31 31 31
7 15 17 19 20 20 23 25 23 21 20 19 19 20 20 22 23 24 26 29 31 27 25 28 30 30 32 32 34 31 29 32 36 35 35 35 36 40 41 39 38 36 36 36 36 37 35 32 34 34 34 34 35 35
16 18 19 19 22 19 23 22 25 26 25 27 25 29 25 24 24 28 29 28 25 27 29 28 29 29 29 30 32 34 30 27 29 32 32 30 28 35 36 38 35 34 35 35 33 31 30 29 29 29 28 29 31 32
16 20 21 20 23 21 23 21 22 24 26 23 26 28 25 23 28 30 33 32 28 27 27 28 29 28 28 30 31 31 26 26 29 32 28 24 23 29 34 34 36 35 33 34 34 32 31 30 29 25 24 26 28 29
19 20 21 19 19 22 21 21 20 23 24 24 22 21 22 24 25 26 24 23 22 21 22 24 25 28 28 29 29 29 32 29 28 23 26 29 32 32 29 32 31 30 28 30 32 34 32 29 26 27 26 28 28 30
22 22 20 20 18 20 20 22 21 18 18 20 20 19 23 24 24 22 22 21 22 22 21 22 24 26 28 26 23 30 32 29 27 27 32 29 23 22 23 28 31 29 28 27 28 25 31 26 27 26 24 22 22 22
25 22 20 13 18 20 23 23 22 21 23 20 20 19 19 20 22 22 25 23 22 25 25 23 21 22 22 34 30 25 15 24 26 24 26 33 22 20 23 23 31 24 28 31 30 26 26 26 26 24 21 22 24 23
21 20 18 25 22 19 21 22 25 25 25 23 24 25 28 29 31 31 31 34 34 35 34 31 27 24 28 34 35 34 27 23 24 19 26 29 25 20 17 23 23 28 24 27 27 29 30 28 27 27 27 24 24 26
19 13 15 15 10 16 17 17 23 25 26 28 36 38 38 38 38 38 39 34 22 32 35 36 35 34 37 38 38 38 37 33 32 28 26 30 29 28 29 30 29 29 32 31 27 29 30 32 27 25 25 25 27 28
24 30 31 28 29 29 27 23 24 26 30 34 36 37 38 38 37 37 38 39 39 39 38 35 30 27 28 31 31 33 35 34 34 36 34 34 35 35 35 34 32 30 30 26 27 30 30 27 21 23 24 25 26 27
29 31 31 29 27 27 27 27 28 28 29 29 30 31 32 32 33 34 33 35 36 34 34 30 29 28 25 27 31 33 34 34 36 37 37 36 35 35 36 37 36 34 32 33 32 32 33 33 21 14 22 27 26 27
26 27 27 26 24 23 21 21 21 22 22 24 25 25 25 25 24 24 19 21 20 19 21 23 25 28 31 28 23 24 17 22 21 22 23 25 26 27 27 28 28 27 28 30 29 29 31 31 32 17 20 23 22 21
Wind_Direction
299 303 307 311 315 319 320 322 320 322 323 326 328 327 328 328 327 334 343 344 342 347 238 36 351 344 303 318 323 305 321 334 344 351 7 356 341 346 348 348 356 350 338 303 299 299 286 310 290 281 282 293 279 279
291 296 300 304 307 311 315 320 322 321 323 324 326 327 327 328 327 329 345 325 326 353 2 266 235 199 174 153 341 340 340 332 357 346 343 349 335 341 343 345 356 350 347 318 293 302 313 298 289 300 299 301 292 285
287 290 293 296 300 303 306 311 316 319 324 325 326 323 323 325 328 336 346 335 329 337 312 353 4 58 77 74 57 18 360 5 340 341 351 354 343 344 350 351 354 353 349 334 300 310 303 303 294 307 287 289 274 279
283 286 288 291 294 296 298 303 309 316 320 325 327 323 321 321 325 330 339 337 340 339 343 332 317 321 319 19 38 29 4 340 355 344 344 355 350 343 338 350 355 358 355 335 314 323 301 330 335 307 311 295 240 260
279 281 284 287 289 291 293 296 301 308 314 319 324 323 321 319 319 323 342 344 350 340 326 322 277 335 354 351 343 349 6 14 5 6 4 356 357 343 341 344 351 9 352 352 337 339 303 299 345 83 33 353 219 225
277 276 279 284 286 287 289 295 298 301 306 312 318 320 320 321 322 332 336 347 343 340 330 325 323 332 338 348 357 353 352 359 2 7 358 353 353 342 346 350 19 44 360 356 350 322 276 289 347 341 326 320 269 299
272 274 276 280 282 284 287 291 296 299 302 310 315 317 317 319 326 328 324 329 328 332 334 323 326 346 1 351 347 348 337 339 351 360 357 350 345 334 329 273 360 9 17 33 18 291 225 215 198 143 312 289 297 301
269 270 273 277 280 282 284 286 291 297 300 306 312 315 313 315 318 319 329 328 331 329 331 326 325 332 356 344 341 350 340 341 342 340 350 348 341 345 339 335 181 7 352 73 69 146 167 342 313 305 301 302 302 302
265 269 271 274 277 279 280 285 288 294 299 305 311 313 314 318 320 322 332 341 334 321 321 321 319 325 330 326 327 334 338 337 347 351 357 2 6 8 16 39 183 173 350 307 8 319 317 316 303 299 301 297 293 294
265 266 269 272 274 276 278 281 285 291 297 306 310 306 305 314 329 331 322 321 322 321 314 309 308 308 302 311 331 329 340 344 347 2 13 9 8 180 186 185 112 26 350 312 315 311 311 314 315 311 299 302 296 292
264 265 266 269 270 271 274 276 279 286 295 296 298 298 310 321 312 314 309 309 318 312 319 322 325 311 325 314 312 329 324 336 345 12 33 9 6 36 159 168 155 130 115 2 330 316 315 317 314 308 306 300 309 313
263 265 265 265 267 266 266 266 265 271 287 291 300 305 308 302 299 299 301 304 305 302 316 322 328 333 318 327 316 325 326 334 341 350 359 16 14 353 29 41 48 50 36 21 357 335 321 313 314 310 311 309 313 313
260 261 262 262 262 262 262 261 250 266 289 291 292 294 297 294 287 290 292 296 297 309 311 314 322 328 323 329 322 322 325 327 338 341 340 353 5 5 4 36 35 23 9 356 343 331 327 318 313 310 307 313 316 314
257 258 259 259 259 259 258 256 247 259 280 281 279 278 281 289 289 282 279 291 297 302 311 288 308 318 319 319 317 317 321 327 326 326 329 350 356 358 360 354 5 357 1 352 342 335 325 318 312 308 311 309 307 311
255 256 256 255 255 253 253 248 244 256 273 274 279 278 277 277 285 295 294 281 289 299 294 297 300 305 309 305 310 310 314 314 318 324 333 339 338 342 348 344 344 352 348 342 342 331 322 320 312 307 312 307 305 303
254 255 255 253 249 248 245 244 245 261 271 275 276 279 284 285 284 281 283 286 296 304 301 295 300 295 294 302 302 300 305 304 312 317 323 329 335 328 332 343 342 337 334 332 334 327 321 318 313 303 306 303 303 302
246 259 252 240 240 238 236 246 252 257 268 271 271 270 278 286 287 289 287 293 299 283 284 298 288 287 301 295 293 296 292 307 316 317 320 321 324 323 321 327 331 327 325 329 324 319 319 316 312 307 306 299 299 297
256 254 258 225 223 231 244 251 258 262 265 270 273 274 275 278 278 281 290 291 290 288 286 283 287 283 287 293 296 308 306 306 312 312 308 311 314 309 307 312 310 316 324 325 324 323 314 315 311 314 311 305 298 295
250 252 235 215 221 239 246 256 260 267 268 273 273 275 277 278 276 277 282 286 286 288 287 285 283 282 281 283 291 303 309 308 306 302 303 301 299 297 302 302 304 312 318 319 323 322 316 310 306 306 309 313 306 303
262 251 223 205 222 249 255 263 263 267 274 279 276 276 276 275 276 276 277 279 281 282 283 281 282 287 289 290 291 291 290 296 297 296 295 302 298 301 298 299 296 304 311 317 318 316 314 315 308 304 307 313 303 300
251 252 230 217 241 259 264 266 267 276 278 273 276 277 276 280 276 276 278 279 277 275 279 284 285 286 291 291 290 291 289 290 289 291 290 288 285 286 293 294 293 292 296 302 304 304 306 309 312 306 298 304 308 298
243 238 236 234 248 259 263 268 272 277 277 275 281 275 279 276 276 279 279 279 279 281 283 286 287 289 290 290 291 291 291 289 289 290 289 290 286 284 285 288 291 291 293 294 297 298 298 299 302 299 301 297 297 297
231 239 240 240 256 259 264 261 267 271 280 284 281 281 285 286 286 287 285 283 283 289 290 290 291 293 293 293 293 293 292 291 290 289 289 289 288 285 282 282 284 288 289 290 293 292 295 300 295 293 295 292 288 286
241 237 245 249 252 264 257 261 258 265 270 269 278 278 285 290 292 288 288 291 296 296 293 292 292 294 296 296 294 292 295 295 293 291 293 292 287 286 282 280 283 284 286 288 290 293 296 298 295 296 297 296 290 285
242 245 254 255 250 257 256 263 265 267 270 275 276 281 288 295 290 288 287 292 296 295 295 296 295 296 296 297 296 296 297 296 294 292 293 292 292 287 283 282 280 282 284 279 279 284 287 291 293 297 297 296 289 281
248 253 253 253 255 256 262 267 273 274 279 280 285 294 299 296 290 295 304 307 307 306 302 302 302 301 299 299 302 301 302 301 298 292 294 295 285 286 287 281 280 281 284 278 276 280 283 288 292 292 291 288 285 279
251 252 259 263 269 270 277 275 280 288 292 291 296 292 290 294 298 307 312 311 312 321 321 315 311 308 307 312 307 309 290 299 302 300 293 285 293 299 289 284 279 281 286 280 279 286 278 287 289 284 291 297 298 294
251 257 262 276 271 274 274 280 286 287 288 291 295 293 297 299 301 308 310 320 317 314 314 318 316 314 309 275 303 309 311 308 308 303 289 288 297 297 300 277 277 285 278 271 273 282 282 285 286 292 297 292 290 291
265 268 268 265 277 284 287 287 286 286 292 296 297 296 293 293 293 294 297 296 296 293 295 300 305 305 300 294 291 292 298 301 301 303 273 282 295 300 292 286 287 279 283 280 279 279 276 277 282 283 282 287 284 288
267 276 280 282 285 294 299 301 293 288 285 283 268 269 275 277 276 280 276 290 302 292 284 280 284 291 285 280 272 274 276 278 273 284 287 283 286 285 279 277 273 271 265 269 277 271 266 270 275 282 287 287 285 284
209 226 210 225 230 232 230 217 219 225 234 248 257 256 260 267 265 267 268 271 270 265 258 250 240 234 236 240 240 244 245 271 272 268 271 270 266 264 259 259 266 272 268 274 276 264 267 272 282 281 283 287 288 286
192 196 205 214 221 229 234 240 242 242 244 243 243 248 250 251 250 255 257 260 256 250 247 240 237 235 230 232 238 240 243 242 243 247 250 251 253 257 256 257 263 267 267 262 263 261 260 258 291 293 287 283 287 285
192 197 202 209 215 223 239 246 243 243 242 243 245 241 237 234 236 243 307 304 316 323 317 308 298 290 275 250 239 236 215 299 311 298 293 287 284 283 281 279 279 281 279 275 278 281 278 278 275 290 290 293 295 296